Location: ????????
(54.9045°N, 39.1041°E)
Time: 08:53:10
(UTC+00:00)

Meteor 2-4 Rocket - Visible Passes

Search period start: 24 July 2024 00:00
Search period end: 03 August 2024 00:00
Orbit: 797 x 908 km, 81.2° (Epoch: 23 July)

Date Brightness Start Highest point End Pass type
(mag) Time Alt. Az. Time Alt. Az. Time Alt. Az.
24 Jul 6.1 20:05:48 10° NNE 20:08:11 13° NE 20:10:34 10° ENE visible
24 Jul 4.3 21:47:15 10° N 21:52:33 51° ENE 21:57:21 13° SE visible
24 Jul 4.6 23:30:35 10° NNW 23:35:21 32° W 23:39:22 14° SSW visible
25 Jul 6.1 19:54:35 10° NNE 19:56:45 12° NE 19:58:55 10° ENE visible
25 Jul 4.4 21:35:55 10° N 21:41:11 48° ENE 21:45:48 14° SE visible
25 Jul 4.5 23:19:10 10° NNW 23:24:02 34° W 23:27:50 16° SSW visible
26 Jul 6.1 19:43:25 10° NNE 19:45:20 12° NE 19:47:14 10° ENE visible
26 Jul 4.4 21:24:34 10° N 21:29:49 46° ENE 21:34:16 15° SE visible
26 Jul 4.5 23:07:46 10° NNW 23:12:43 36° W 23:16:19 17° SSW visible
27 Jul 6.1 19:32:17 10° NNE 19:33:54 11° NE 19:35:31 10° ENE visible
27 Jul 4.5 21:13:14 10° N 21:18:27 44° ENE 21:22:47 15° SE visible
27 Jul 4.4 22:56:23 10° NNW 23:01:24 38° W 23:04:49 19° SSW visible
28 Jul 6.2 19:21:12 10° NNE 19:22:28 11° NE 19:23:44 10° NE visible
28 Jul 4.6 21:01:54 10° N 21:07:04 42° ENE 21:11:18 15° SE visible
28 Jul 4.3 22:45:00 10° NNW 22:50:04 41° W 22:53:20 21° SSW visible
29 Jul 6.2 19:10:16 10° NNE 19:11:01 10° NE 19:11:47 10° NE visible
29 Jul 4.7 20:50:33 10° N 20:55:42 40° ENE 20:59:49 16° SE visible
29 Jul 4.3 22:33:36 10° NNW 22:38:45 43° W 22:41:52 22° SSW visible
30 Jul 4.7 20:39:12 10° N 20:44:19 38° ENE 20:48:23 16° SE visible
30 Jul 4.2 22:22:13 10° NNW 22:27:25 45° W 22:30:26 24° SSW visible
31 Jul 4.8 20:27:52 10° N 20:32:56 36° ENE 20:36:57 16° SE visible
31 Jul 4.1 22:10:50 10° NNW 22:16:06 48° W 22:19:00 26° SSW visible
01 Aug 4.8 20:16:32 10° N 20:21:33 34° ENE 20:25:33 15° ESE visible
01 Aug 4.1 21:59:26 10° NNW 22:04:46 51° W 22:07:35 27° SSW visible
02 Aug 4.9 20:05:12 10° N 20:10:10 33° ENE 20:14:09 15° ESE visible
02 Aug 4.0 21:48:03 10° NNW 21:53:26 54° W 21:56:11 28° SSW visible
02 Aug 5.9 23:34:14 10° WNW 23:35:12 10° WNW 23:36:11 10° W visible
